{"data":{"norad_id":59195,"epoch":"2026-09-19T21:59:32.816256Z","epoch_age_seconds":209282,"freshness":"STALE","line1":"1 59195U 24045T   26262.91635204  .00000075  00000+0  12243-4 0  9999","line2":"2 59195  43.0015  75.8403 0001385 273.3298  86.7395 15.27575295142869","mean_motion":15.27575295,"eccentricity":0.0001385,"inclination_deg":43.0015,"raan_deg":75.8403,"arg_perigee_deg":273.3298,"mean_anomaly_deg":86.7395,"bstar":1.2243e-5,"rev_number":14286,"period_min":94.26703905944,"perigee_km":482.11290831287,"apogee_km":484.01346076399,"semimajor_km":6861.2001845384,"source":"CELESTRAK","updated_at":"2026-09-21T09:00:34.065768Z"}}